Change the Weather History Date:

Sunday, December 2, 2012

  Actual Average Record
Temperature  
Mean Temperature 73 °F -  
Max Temperature 82 °F 79 °F - ()
Min Temperature 64 °F 64 °F - ()
Cooling Degree Days 8    
Growing Degree Days 23 (Base 50)    
Moisture  
Dew Point 61 °F    
Average Humidity 67    
Maximum Humidity 88    
Minimum Humidity 48    
Precipitation  
Precipitation 0.00 in 0.04 in - ()
Sea Level Pressure  
Sea Level Pressure 30.00 in    
Wind  
Wind Speed 7 mph ()    
Max Wind Speed 16 mph    
Max Gust Speed 21 mph    
Visibility 7.6 miles    
Events      
T = Trace of Precipitation, MM = Missing Value Source: Averaged Metar Reports

Daily Weather History Graph

Daily Weather History Graph

Search for Another Location

Airport or City:

Trip Planner

Search our weather history database for the weather conditions in past years. The results will help you decide how hot, cold, wet, or windy it might be!

Date:

Astronomy

Dec. 02, 2012 Rise Set
Actual Time 5:39 AM CST 5:13 PM CST
Civil Twilight 5:16 AM CST 5:36 PM CST
Nautical Twilight 4:50 AM CST 6:02 PM CST
Astronomical Twilight 4:24 AM CST 6:28 PM CST
Moon 8:42 PM CST (12/2) 8:42 AM CST (12/2)
Length of Visible Light 12h 19m
Length of Day
11h 34m
Waning Gibbous, 85% of the Moon is Illuminated
Dec 2
Waning Gibbous
Dec 6
Last Quarter
Dec 13
New
Dec 19
First Quarter
Dec 28
Full

Hourly Weather History & Observations

Time (CST) Temp. Heat Index Dew Point Humidity Pressure Visibility Wind Dir Wind Speed Gust Speed Precip Events Conditions
12:00 AM 69 °F - 60 °F 65% 29.89 in 12 mi NE 9.2 mph - -   Clear
12:00 AM 69.8 °F - 59.0 °F 68% 30.05 in - NE 9.2 mph - N/A   Clear
1:00 AM 68.0 °F - 60.8 °F 78% 30.03 in - NNE 5.8 mph - N/A   Clear
2:00 AM 68.0 °F - 60.8 °F 78% 30.02 in - East 4.6 mph - N/A   Clear
3:00 AM 68.0 °F - 60.8 °F 78% 30.00 in - East 4.6 mph - N/A   Clear
4:00 AM 66.2 °F - 59.0 °F 78% 30.01 in - NNE 5.8 mph - N/A   Clear
5:00 AM 66.2 °F - 59.0 °F 78% 30.02 in - NNE 5.8 mph - N/A   Clear
6:00 AM 68 °F - 60 °F 67% 29.87 in 12 mi NE 8.1 mph - -   Partly Cloudy
6:00 AM 68.0 °F - 59.0 °F 73% 30.05 in 6.2 mi NE 8.1 mph - N/A   Scattered Clouds
7:00 AM 69.8 °F - 60.8 °F 73% 30.07 in 6.2 mi NNE 6.9 mph - N/A   Mostly Cloudy
8:00 AM 71.6 °F - 62.6 °F 73% 30.09 in 6.2 mi East 5.8 mph - N/A   Mostly Cloudy
9:00 AM 78.8 °F - 62.6 °F 57% 30.08 in 6.2 mi East 5.8 mph - N/A   Scattered Clouds
10:00 AM 78.8 °F - 60.8 °F 54% 30.07 in 6.2 mi East 10.4 mph - N/A   Scattered Clouds
11:00 AM 80.6 °F 81.5 °F 60.8 °F 51% 30.05 in 6.2 mi East 10.4 mph - N/A   Scattered Clouds
12:00 PM 78 °F - 62 °F 48% 29.86 in 12 mi East 8.1 mph - -   Mostly Cloudy
12:00 PM 78.8 °F - 62.6 °F 57% 30.03 in 6.2 mi East 8.1 mph - N/A   Mostly Cloudy
1:00 PM 78.8 °F - 62.6 °F 57% 30.00 in 6.2 mi SE 6.9 mph - N/A   Scattered Clouds
2:00 PM 78.8 °F - 62.6 °F 57% 29.98 in 6.2 mi East 9.2 mph - N/A   Scattered Clouds
3:00 PM 77 °F - 61 °F 48% 29.80 in 12 mi SSE 9.2 mph - -   Overcast
3:00 PM 77.0 °F - 60.8 °F 57% 29.96 in 6.2 mi SSE 9.2 mph - N/A   Scattered Clouds
4:00 PM 77.0 °F - 60.8 °F 57% 29.98 in 6.2 mi WNW 8.1 mph - N/A   Scattered Clouds
5:00 PM 73.4 °F - 60.8 °F 65% 29.99 in 6.2 mi SSE 4.6 mph - N/A   Mostly Cloudy
6:00 PM 71 °F - 68 °F 88% 29.88 in 12 mi East 9.2 mph - -   Scattered Clouds
6:00 PM 71.6 °F - 60.8 °F 69% 30.01 in 6.2 mi East 9.2 mph 20.7 mph N/A   Mostly Cloudy
7:00 PM 69.8 °F - 60.8 °F 73% 30.03 in 6.2 mi East 9.2 mph - N/A   Scattered Clouds
8:00 PM 69.8 °F - 60.8 °F 73% 30.06 in 6.2 mi East 16.1 mph - N/A   Scattered Clouds
9:00 PM 70 °F - 60 °F 64% 29.91 in 12 mi NE 8.1 mph - -   Scattered Clouds
9:00 PM 69.8 °F - 60.8 °F 73% 30.07 in 6.2 mi NE 8.1 mph - N/A   Partly Cloudy
10:00 PM 69.8 °F - 60.8 °F 73% 30.06 in 6.2 mi East 3.5 mph - N/A   Scattered Clouds
11:00 PM 68.0 °F - 60.8 °F 78% 30.05 in 6.2 mi East 4.6 mph - N/A   Scattered Clouds